Regional Weather Roundup
Issued by NWS

Home | Current Version | Previous Version | Graphics & Text | Print | Product List | Glossary Off
Versions: 1 2 3 4 5 6 7 8 9 10 11 12 13 14 15 16 17 18 19 20 21 22 23 24 25 26 27 28 29 30 31 32 33 34 35 36 37 38 39 40 41 42 43 44 45 46 47 48 49 50

000
ASUS43 KMPX 031301
RWRMN
WEATHER ROUNDUP FOR MINNESOTA
NATIONAL WEATHER SERVICE TWIN CITIES/CHANHASSEN MN
700 AM CST SAT DEC 03 2016


NOTE: "FAIR" INDICATES FEW OR NO CLOUDS BELOW 12,000 FEET WITH NO
SIGNIFICANT WEATHER AND/OR OBSTRUCTIONS TO VISIBILITY. N/A MEANS
CURRENT SKY AND/OR WEATHER CONDITIONS ARE NOT AVAILABLE.

MNZ060>063-068>070-031400-
   Twin Cities Metro

CITY           SKY/WX    TMP DP  RH WIND       PRES   REMARKS
TWIN CITIES    CLOUDY    29  20  69 SW6       30.31S WCI  23
ST PAUL        CLOUDY    29  23  78 S3        30.32S
CRYSTAL        CLOUDY    29  19  66 S3        30.29S
LAKEVILLE        N/A     27  21  80 W6        30.30S WCI  20
EDEN PRAIRIE   CLOUDY    29  20  69 SW6       30.29F WCI  23
SOUTH ST PAUL  CLOUDY    30  22  73 CALM      30.31S
LAKE ELMO      CLOUDY    30  27  86 SW6       30.31S WCI  24
$$
MNZ001>005-007-008-013>017-022>024-027-028-031400-
   Northwest Minnesota

CITY           SKY/WX    TMP DP  RH WIND       PRES   REMARKS
BEMIDJI        CLOUDY    23  18  82 S6        30.22R WCI  16
HALLOCK        CLOUDY    28  25  86 S17       30.16F WCI  16
ROSEAU         CLOUDY    28  21  74 S10       30.19S WCI  19
WARROAD        CLOUDY    27  23  86 S5        30.20S WCI  21
THIEF RVR FALL CLOUDY    24  19  81 S13       30.21S WCI  12
CROOKSTON      CLOUDY    25  19  80 S15       30.21F WCI  12
FOSSTON        CLOUDY    21  18  86 S7        30.21F WCI  13
DETROIT LAKES  CLOUDY    27  21  80 S8        30.22S WCI  18
MOORHEAD       CLOUDY    27  19  74 S6        30.24S WCI  20
PARK RAPIDS    CLOUDY    24  15  68 S6        30.21F WCI  17
$$
MNZ006-009>011-018-025>026-031400-
   North Central Minnesota

CITY           SKY/WX    TMP DP  RH WIND       PRES   REMARKS
BAUDETTE       CLOUDY    25  21  85 S7        30.21R WCI  17
FLAG ISLAND    CLOUDY    28  23  80 S5        30.18S WCI  23
INTL FALLS     CLOUDY    24  19  81 W3        30.23R
WASKISH        CLOUDY    25  21  86 S3        30.22S
BIG FORK       CLOUDY    25  19  80 CALM      30.23S
LONGVILLE      CLOUDY    25  19  80 SW7       30.24S WCI  17
GRAND RAPIDS   CLOUDY    25  20  81 S3        30.25F
CRANE LAKE     CLOUDY    21  21 100 CALM      30.26S
ORR            CLOUDY    21  18  86 CALM      30.21S
COOK           CLOUDY    21  19  93 CALM      30.24S
$$
MNZ012-019>021-037-031400-
   Northeast Minnesota

CITY           SKY/WX    TMP DP  RH WIND       PRES   REMARKS
DULUTH         CLOUDY    26  23  88 W7        30.24R WCI  18
ELY            CLOUDY    23  21  93 CALM      30.23S
HIBBING        CLOUDY    23  19  85 CALM      30.24S
EVELETH        CLOUDY    24  20  84 W5        30.25S WCI  19
DULUTH HARBOR  CLOUDY    30  27  86 SW6       30.29S WCI  24
TWO HARBORS    MOCLDY    30  25  80 W3        30.24R
SILVER BAY     CLOUDY    28  25  86 CALM      30.23R
GRAND MARAIS     N/A     30  23  75 NW7       30.26R WCI  23
G MARAIS ARPRT CLOUDY    21  18  86 CALM      30.20S
$$
MNZ029>031-032-039>041-046>048-054>057-064-031400-
   West Central Minnesota

CITY           SKY/WX    TMP DP  RH WIND       PRES   REMARKS
FERGUS FALLS   CLOUDY    25  18  74 S10       30.28F WCI  15
WHEATON        CLOUDY   N/A N/A N/A S7        30.27F
MORRIS         CLOUDY    27  19  74 S8        30.26S WCI  18
ALEXANDRIA     CLOUDY    24  19  81 S10       30.25F WCI  14
ELBOW LAKE     CLOUDY    24  19  79 CALM      30.26S
WADENA         CLOUDY    23  18  80 S7        30.23S WCI  15
GLENWOOD       CLOUDY    25  19  80 SW7       30.26S WCI  17
APPLETON       MOCLDY    27  19  74 S3        30.27F
BENSON         CLOUDY    27  18  69 SW7       30.28S WCI  19
ORTONVILLE     PTCLDY    23  18  80 CALM      30.25F
MADISON        MOCLDY    27  25  93 SE5       30.27S WCI  21
WILLMAR        CLOUDY    28  21  74 SW7       30.29F WCI  21
$$
MNZ033>034-036-042>043-049>051-058-059-031400-
   Central Minnesota

CITY           SKY/WX    TMP DP  RH WIND       PRES   REMARKS
ST CLOUD       CLOUDY    27  21  78 SW8       30.28R WCI  19
PAYNESVILLE    CLOUDY    26  19  77 SW5       30.29S WCI  20
AITKIN         CLOUDY    28  21  74 CALM      30.24S
PINE RIVER     CLOUDY    23  19  86 SW3       30.27F
BRAINERD       CLOUDY    25  19  78 SW7       30.26S WCI  17
STAPLES        CLOUDY    23  18  80 S7        30.25S WCI  15
LONG PRAIRIE   CLOUDY    25  19  80 S3        30.27S
LITTLE FALLS   CLOUDY    27  19  74 W6        30.27S WCI  20
LITCHFIELD     CLOUDY    27  19  74 SW3       30.29F
BUFFALO        CLOUDY    28  22  77 CALM      30.31R
MAPLE LAKE     CLOUDY    29  24  83 SW6       30.30S WCI  23
$$
MNZ037-044-045-052-053-031400-
   East Central Minnesota

CITY           SKY/WX    TMP DP  RH WIND       PRES   REMARKS
PRINCETON      CLOUDY    28  27  93 SW5       30.29R WCI  23
MORA           CLOUDY    28  23  80 CALM      30.29F
CAMBRIDGE      FLURRIES  30  23  74 CALM      30.27S
RUSH CITY      CLOUDY    28  25  86 CALM      30.28F
MOOSE LAKE     CLOUDY    28  25  86 CALM      30.25S
HINCKLEY       CLOUDY    30  27  86 SW3       30.28S
CLOQUET        CLOUDY    27  21  80 W3        30.25S
MCGREGOR       CLOUDY    27  23  86 CALM      30.26S
$$
MNZ071>073-080-081-089-090-097-098-031400-
   Southwest Minnesota

CITY           SKY/WX    TMP DP  RH WIND       PRES   REMARKS
MONTEVIDEO     MOCLDY    23  21  93 CALM      30.29F
GRANITE FALLS  MOCLDY    26  22  84 S5        30.30F WCI  21
CANBY          CLOUDY    26  23  87 CALM      30.26F
MARSHALL       CLOUDY    25  20  81 SE5       30.27F WCI  19
REDWOOD FALLS  CLOUDY    28  18  66 W7        30.29F WCI  21
OLIVIA         MOCLDY    30  23  74 SW8       30.28F WCI  23
PIPESTONE      PTCLDY    27  25  93 SE5       30.21F WCI  21
WINDOM         CLOUDY    27  19  74 CALM      30.27F
WORTHINGTON    CLOUDY    28  24  85 E6        30.25F WCI  22
JACKSON        CLOUDY    27  21  80 CALM      30.27F
TRACY          CLOUDY    26  21  81 CALM      30.26F
SLAYTON        CLOUDY    25  22  85 SE5       30.26F WCI  20
$$
MNZ065>067-074>077-082>085-091>093-031400-
   South Central Minnesota

CITY           SKY/WX    TMP DP  RH WIND       PRES   REMARKS
NEW ULM        CLOUDY    27  18  69 SW3       30.30S
ST JAMES       CLOUDY    27  19  74 CALM      30.31S
FAIRMONT       CLOUDY    28  21  75 N5        30.30F WCI  23
GLENCOE        CLOUDY    28  23  81 SW3       30.30S
FARIBAULT      CLOUDY    28  25  86 SW3       30.30F
OWATONNA       CLOUDY    27  25  93 CALM      30.29F
WASECA         CLOUDY    28  23  80 W6        30.31F WCI  22
$$
MNZ078>079-086>088-094>096-031400-
   Southeast Minnesota

CITY           SKY/WX    TMP DP  RH WIND       PRES   REMARKS
ROCHESTER      CLOUDY    28  24  85 S3        30.29F
RED WING       CLOUDY    30  21  69 W3        30.30F
STANTON        CLOUDY    30  22  74 CALM      30.30S
DODGE CENTER   CLOUDY    27  23  86 CALM      30.28F
WINONA         CLOUDY    32  23  69 W3        30.34S
AUSTIN         CLOUDY    28  21  74 W7        30.29F WCI  21
PRESTON        CLOUDY    28  23  82 SW3       30.30S
$$
ABBREVIATIONS USED IN REMARKS
   TC - TEMPERATURES IN CELSIUS
  WCI - WIND CHILL INDEX
   HX - HEAT INDEX
  VSB - VISIBILITY
$$




USA.gov is the U.S. government's official web portal to all federal, state and local government web resources and services.